Flag for Saudi Arabia

Past Weather in Dammam, Saudi Arabia — Yesterday and Last 2 Weeks

Now
102 °F

Sunny.


Feels Like: 107 °F
Forecast: 100 / 83 °F
Wind: 12 mph from East

Location: Dhahran
Current Time: Sep 21, 2020 at 12:57:35 pm
Latest Report: Sep 21, 2020 at 12:00 pm
Visibility: 10 mi
Pressure29.56 "Hg
Humidity: 31%
Dew Point: 66 °F
Location of DammamLocation

Past Weather in Dammam — Graph

°F

Dammam Temperature Yesterday

Maximum temperature yesterday: 104 °F (at 11:00 am)
Minimum temperature yesterday: 81 °F (at 3:00 am)
Average temperature yesterday: 93 °F

High & Low Weather Summary for the Past Weeks

 TemperatureHumidityPressure
High115 °F (Sep 8, 2:00 pm)100% (Sep 10, 3:00 am)29.71 "Hg (Sep 10, 3:00 am)
Low77 °F (Sep 10, 3:00 am)6% (Sep 9, 1:00 pm)29.50 "Hg (Sep 11, 3:00 pm)
Average94 °F45%29.61 "Hg
* Reported Sep 6 12:00 pm — Sep 21 12:00 pm, Dammam. Weather by CustomWeather, © 2020

Note: Actual official high and low records may vary slightly from our data, if they occured in-between our weather recording intervals... More about our weather records

Dammam Weather History for the Previous 24 Hours

Scroll right to see more
 ConditionsComfort  
Time TempWeatherWind HumidityBarometerVisibility
12:00 pm
Mon, Sep 21
102 °FSunny.12 mph31%29.56 "Hg10 mi
11:00 am104 °FSunny.7 mph19%29.59 "Hg10 mi
10:00 am100 °FSunny.8 mph22%29.59 "Hg10 mi
9:00 am93 °FSunny.12 mph21%29.62 "Hg10 mi
8:00 am90 °FClear.12 mph21%29.62 "Hg5 mi
7:00 am84 °FClear.7 mph33%29.62 "Hg5 mi
6:00 am84 °FClear.8 mph37%29.59 "Hg5 mi
5:00 am84 °FClear.8 mph37%29.59 "Hg10 mi
4:00 am84 °FClear.7 mph37%29.59 "Hg10 mi
3:00 am82 °FClear.5 mph55%29.56 "Hg10 mi
2:00 am82 °FClear.6 mph58%29.56 "Hg10 mi
1:00 am84 °FClear.6 mph51%29.59 "Hg10 mi
12:00 am86 °FClear.5 mph49%29.59 "Hg10 mi
11:00 pm
Sun, Sep 20
88 °FClear.3 mph52%29.59 "Hg10 mi
10:00 pm88 °FClear.2 mph52%29.59 "Hg10 mi
9:00 pm91 °FClear.5 mph52%29.59 "Hg10 mi
8:00 pm93 °FClear.9 mph44%29.59 "Hg10 mi
7:00 pm95 °FClear.10 mph41%29.56 "Hg10 mi
6:00 pm97 °FClear.15 mph34%29.56 "Hg10 mi
5:00 pm99 °FSunny.15 mph33%29.56 "Hg10 mi
4:00 pm100 °FSunny.18 mph29%29.53 "Hg10 mi
3:00 pm102 °FSunny.22 mph27%29.53 "Hg10 mi
2:00 pm104 °FSunny.22 mph23%29.53 "Hg10 mi
1:00 pm104 °FSunny.23 mph24%29.53 "Hg10 mi
12:00 pm104 °FSunny.22 mph23%29.56 "Hg10 mi
Weather by CustomWeather, © 2020

See weather overview